Time,TemperatureF,DewpointF,PressureIn,WindDirection,WindDirectionDegrees,WindSpeedMPH,WindSpeedGustMPH,Humidity,HourlyPrecipIn,Conditions,Clouds,dailyrainin,SolarRadiationWatts/m^2,SoftwareType,DateUTC
2013-08-04 00:22:00,57.0,32.0,-100.00,SE,135,3.0,7.0,38,-99.99,,,-99.99,0.000000,,2013-08-04 07:22:00,
2013-08-04 00:30:00,56.0,30.0,-100.00,SSE,154,4.0,8.0,38,-99.99,,,-99.99,0.000000,,2013-08-04 07:30:00,
2013-08-04 01:30:00,55.0,30.0,-100.00,SSE,153,5.0,7.0,38,-99.99,,,-99.99,0.000000,,2013-08-04 08:30:00,
2013-08-04 02:22:00,55.0,30.0,-100.00,SSE,153,5.0,7.0,38,-99.99,,,-99.99,0.000000,,2013-08-04 09:22:00,
2013-08-04 02:30:00,56.0,28.0,-100.00,SSE,158,4.0,6.0,34,-99.99,,,-99.99,0.000000,,2013-08-04 09:30:00,
2013-08-04 03:22:00,56.0,28.0,-100.00,SSE,158,4.0,6.0,34,-99.99,,,-99.99,0.000000,,2013-08-04 10:22:00,
2013-08-04 04:30:00,55.0,26.0,-100.00,SE,141,2.0,6.0,33,-99.99,,,-99.99,0.000000,,2013-08-04 11:30:00,
2013-08-04 05:22:00,55.0,26.0,-100.00,SE,141,2.0,6.0,33,-99.99,,,-99.99,0.000000,,2013-08-04 12:22:00,
2013-08-04 06:22:00,55.0,24.0,-100.00,SSE,159,2.0,4.0,30,-99.99,,,-99.99,0.000000,,2013-08-04 13:22:00,
2013-08-04 12:30:00,68.0,32.0,-100.00,SSW,195,4.0,9.0,26,-99.99,,,-99.99,736.000000,,2013-08-04 19:30:00,
2013-08-04 13:22:00,68.0,32.0,-100.00,SSW,195,4.0,9.0,26,-99.99,,,-99.99,736.000000,,2013-08-04 20:22:00,
2013-08-04 19:30:00,61.0,34.0,-100.00,NW,322,2.0,4.0,37,-99.99,,,-99.99,24.000000,,2013-08-05 02:30:00,
2013-08-04 20:21:00,61.0,34.0,-100.00,NW,322,2.0,4.0,37,-99.99,,,-99.99,24.000000,,2013-08-05 03:21:00,
2013-08-04 20:30:00,56.0,35.0,-100.00,NNW,333,2.0,2.0,45,-99.99,,,-99.99,0.000000,,2013-08-05 03:30:00,
2013-08-04 21:22:00,56.0,35.0,-100.00,NNW,333,2.0,2.0,45,-99.99,,,-99.99,0.000000,,2013-08-05 04:22:00,
2013-08-04 21:30:00,57.0,34.0,-100.00,SE,128,1.0,3.0,43,-99.99,,,-99.99,0.000000,,2013-08-05 04:30:00,
2013-08-04 22:22:00,57.0,34.0,-100.00,SE,128,1.0,3.0,43,-99.99,,,-99.99,0.000000,,2013-08-05 05:22:00,
2013-08-04 22:30:00,57.0,33.0,-100.00,SSE,157,4.0,8.0,39,-99.99,,,-99.99,0.000000,,2013-08-05 05:30:00,
2013-08-04 23:22:00,57.0,33.0,-100.00,SSE,157,4.0,8.0,39,-99.99,,,-99.99,0.000000,,2013-08-05 06:22:00,
2013-08-04 23:30:00,57.0,30.0,-100.00,South,170,3.0,5.0,36,-99.99,,,-99.99,0.000000,,2013-08-05 06:30:00,